[[{"header":{"parameterUnit":"m.s-1","parameterCategory":1,"la1":30.2991,"la2":30.254,"lo1":-89.0895,"lo2":-89.0444,"dy":0.0017,"dx":0.0017,"nx":28,"ny":28,"refTime":"2023-09-01T09:00:00:Z","depth":0,"parameterNumber":2,"parameterNumberName":"U-component_of_WINDS"},"data":[0,0,0,0,0,0,0,0,0,0,0,0,0,0,0,0,0,0,0,0,0,0,0,0,0,0,0,0,0,0,0,0,0,0,0,0,0,0,0,0,0,0,0,0,0,0,0,0,0,0,0,0,0,0,0,0,0,0,-1.586,-1.586,0,-1.5843,-1.5843,-1.5843,-1.5775,-1.5773,-1.5772,-1.577,-1.5753,-1.5754,-1.5755,0,0,0,0,0,0,0,0,0,0,0,0,0,-1.5834,-1.5835,-1.5861,-1.586,-1.586,-1.5843,-1.5843,-1.5843,-1.5775,-1.5773,-1.5771,-1.577,-1.5753,-1.5754,-1.5756,0,0,0,0,0,0,0,0,0,0,0,0,0,-1.5834,-1.5836,-1.5861,-1.5824,-1.5821,-1.5843,-1.5843,-1.5843,-1.5776,-1.5773,-1.5771,-1.5769,-1.5753,-1.5754,-1.5756,-1.5812,0,0,-1.576,-1.5761,0,0,0,0,0,0,0,0,-1.5835,-1.5835,-1.583,-1.5827,-1.5823,-1.5809,-1.5828,-1.5832,-1.5776,-1.5793,-1.577,-1.5768,-1.5774,-1.5773,-1.5775,-1.5811,-1.581,-1.576,-1.5761,-1.5762,-1.5762,0,0,0,0,0,0,0,-1.5835,-1.5836,-1.5854,-1.583,-1.5826,-1.5809,-1.5806,-1.5828,-1.5797,-1.5791,-1.5786,-1.5785,-1.5772,-1.5774,-1.5774,-1.581,-1.576,-1.5762,-1.5763,-1.5763,-1.5889,-1.5891,0,0,0,0,0,0,-1.584,-1.5836,-1.5854,-1.5853,-1.5823,-1.5811,-1.5808,-1.5816,-1.5796,-1.5791,-1.5787,-1.5782,-1.5773,-1.5773,-1.5774,-1.5837,-1.5762,-1.5763,-1.5764,-1.5887,-1.589,-1.5892,0,0,0,0,0,0,-1.5839,-1.5842,-1.5855,-1.5843,-1.5844,-1.5814,-1.5823,-1.5817,-1.5819,-1.5793,-1.5787,-1.5796,-1.5771,-1.5772,-1.5802,-1.5835,-1.5764,-1.5765,-1.5884,-1.5887,-1.5891,-1.5964,0,0,0,0,0,0,-1.5839,-1.5842,-1.5864,-1.5844,-1.5845,-1.5884,-1.5825,-1.5818,-1.5822,-1.5815,-1.58,-1.5795,-1.5769,-1.58,-1.5804,-1.5836,-1.5767,-1.5881,-1.5885,-1.589,-1.5959,-1.597,-1.598,0,0,0,0,0,-1.5838,-1.5886,-1.5865,-1.5868,-1.5871,-1.5886,-1.5887,-1.5856,-1.5825,-1.5846,-1.5829,-1.5795,-1.5831,-1.5804,-1.5807,-1.5841,-1.5878,-1.5884,-1.5889,-1.5954,-1.5968,-1.5979,0,0,0,0,0,0,-1.591,-1.5882,-1.5859,-1.5902,-1.5897,-1.5875,-1.59,-1.5872,-1.5876,-1.5869,-1.5831,-1.5828,-1.5864,-1.5855,-1.5826,-1.5893,-1.5849,-1.5855,-1.5897,-1.591,-1.592,-1.5921,-1.5768,0,0,0,0,0,-1.5931,-1.5946,-1.5921,-1.5961,-1.5959,-1.5931,-1.5936,-1.5913,-1.5906,-1.5904,-1.5889,-1.5885,-1.5894,-1.5902,-1.591,-1.5957,-1.5952,-1.5982,-1.5992,-1.6001,-1.6006,-1.6029,-1.6042,-1.591,-1.591,-1.591,0,0,-1.5974,-1.5961,-1.5973,-1.5975,-1.5968,-1.5984,-1.5929,-1.5949,-1.5961,-1.5907,-1.5935,-1.5924,-1.5916,-1.5955,-1.5972,-1.5949,-1.6042,-1.6008,-1.6015,-1.6016,-1.6036,-1.6049,-1.606,-1.5914,-1.5913,-1.5913,0,0,-1.6061,-1.6053,-1.6084,-1.6078,-1.6069,-1.6049,-1.6056,-1.6038,-1.6029,-1.6056,-1.6016,-1.6029,-1.6047,-1.6042,-1.6043,-1.6126,-1.6095,-1.6129,-1.6184,-1.6206,-1.6217,-1.6226,-1.6254,-1.6265,-1.6135,-1.6136,-1.6136,0,-1.6115,-1.6138,-1.6104,-1.6126,-1.6127,-1.6079,-1.611,-1.6106,-1.61,-1.6102,-1.6077,-1.6098,-1.6089,-1.6125,-1.6146,-1.6148,-1.6154,-1.6131,-1.6218,-1.6227,-1.6234,-1.6261,-1.6272,-1.614,-1.6139,-1.6139,-1.6139,0,-1.6205,-1.6221,-1.6248,-1.6242,-1.6247,-1.6273,-1.6243,-1.6252,-1.6228,-1.621,-1.6238,-1.6226,-1.6229,-1.6236,-1.6214,-1.6269,-1.6255,-1.6225,-1.618,-1.6252,-1.6276,-1.6286,-1.6146,-1.6144,-1.6143,-1.6142,0,0,-1.6337,-1.6311,-1.6321,-1.6317,-1.6302,-1.6314,-1.6338,-1.6341,-1.6349,-1.6346,-1.6364,-1.638,-1.6351,-1.6351,-1.6327,-1.6348,-1.6412,-1.6314,-1.6313,-1.6332,-1.6471,-1.6494,-1.6506,-1.6392,-1.6394,-1.6395,-1.6472,0,-1.6418,-1.6457,-1.6427,-1.6471,-1.6485,-1.6438,-1.6459,-1.6452,-1.6436,-1.6446,-1.6428,-1.6439,-1.6401,-1.6401,-1.6419,-1.6401,-1.644,-1.6395,-1.6408,-1.6409,-1.6411,-1.6519,-1.6543,-1.6616,-1.6481,-1.6483,-1.6484,0,-1.6519,-1.6519,-1.6565,-1.6545,-1.655,-1.6569,-1.6568,-1.6578,-1.6569,-1.6556,-1.6555,-1.6525,-1.6547,-1.6503,-1.6531,-1.6502,-1.6505,-1.6497,-1.6499,-1.6498,-1.645,-1.6521,-1.6639,-1.6649,-1.6499,-1.6498,-1.6497,0,-1.6609,-1.6621,-1.6649,-1.6647,-1.6626,-1.664,-1.6632,-1.662,-1.6623,-1.6623,-1.6624,-1.6627,-1.6628,-1.663,-1.6602,-1.6573,-1.6633,-1.6588,-1.6622,-1.6623,-1.6637,-1.6636,-1.6756,-1.6641,-1.6641,-1.6641,-1.664,0,-1.6702,-1.6732,-1.6689,-1.6706,-1.6737,-1.6702,-1.6733,-1.672,-1.671,-1.6724,-1.6684,-1.6698,-1.6659,-1.6669,-1.6647,-1.6673,-1.6674,-1.6664,-1.6657,-1.6667,-1.6668,-1.6668,-1.6662,-1.6643,-1.6643,-1.6642,-1.6642,0,-1.6808,-1.6781,-1.6808,-1.6785,-1.678,-1.6804,-1.6784,-1.6798,-1.678,-1.6797,-1.6799,-1.677,-1.6779,-1.6751,-1.6755,-1.674,-1.6778,-1.6764,-1.6781,-1.6776,-1.6812,-1.6809,-1.6936,-1.695,-1.6827,-1.6828,-1.6829,0,-1.6869,-1.689,-1.6869,-1.6875,-1.6868,-1.6879,-1.6881,-1.6847,-1.6851,-1.6841,-1.6857,-1.6863,-1.6865,-1.6881,-1.686,-1.6864,-1.6848,-1.6893,-1.6849,-1.6857,-1.6848,-1.6846,-1.6848,-1.6902,-1.6903,-1.6904,-1.6905,0,-1.698,-1.6965,-1.697,-1.697,-1.6974,-1.6973,-1.6969,-1.6976,-1.6939,-1.6946,-1.6954,-1.6956,-1.696,-1.6965,-1.6964,-1.6955,-1.6924,-1.6919,-1.6927,-1.6937,-1.6945,-1.694,-1.6805,-1.6917,-1.6916,-1.6915,-1.6914,-1.6914,-1.7065,-1.7081,-1.7067,-1.7074,-1.7067,-1.7064,-1.7076,-1.7058,-1.7064,-1.7064,-1.7044,-1.7056,-1.7044,-1.7039,-1.7033,-1.7041,-1.7021,-1.7033,-1.7036,-1.7039,-1.7045,-1.6945,-1.7041,-1.7041,-1.7041,-1.704,-1.704,0,-1.7172,-1.7161,-1.7168,-1.7162,-1.7167,-1.7137,-1.7131,-1.7137,-1.7148,-1.714,-1.7143,-1.7151,-1.7156,-1.7135,-1.7137,-1.7148,-1.7134,-1.715,-1.7148,-1.7146,-1.7063,-1.7056,-1.7161,-1.7161,-1.7161,-1.7161,-1.7161,-1.7161,-1.7229,-1.7254,-1.7237,-1.7258,-1.7246,-1.7257,-1.7256,-1.7253,-1.7246,-1.7257,-1.726,-1.7247,-1.7233,-1.7233,-1.7236,-1.7229,-1.7232,-1.7252,-1.7241,-1.7164,-1.7152,-1.7141,-1.7133,-1.7253,-1.7253,-1.7323,-1.7323,-1.7324]},{"header":{"parameterUnit":"m.s-1","parameterCategory":1,"la1":30.2991,"la2":30.254,"lo1":-89.0895,"lo2":-89.0444,"dy":0.0017,"dx":0.0017,"nx":28,"ny":28,"refTime":"2023-09-01T09:00:00:Z","depth":0,"parameterNumber":3,"parameterNumberName":"V-component_of_WINDS"},"data":[0,0,0,0,0,0,0,0,0,0,0,0,0,0,0,0,0,0,0,0,0,0,0,0,0,0,0,0,0,0,0,0,0,0,0,0,0,0,0,0,0,0,0,0,0,0,0,0,0,0,0,0,0,0,0,0,0,0,-2.0878,-2.0879,0,-2.0984,-2.0985,-2.0987,-2.1016,-2.1016,-2.1015,-2.1015,-2.1122,-2.1125,-2.1129,0,0,0,0,0,0,0,0,0,0,0,0,0,-2.07,-2.0703,-2.0878,-2.0879,-2.0881,-2.0984,-2.0985,-2.0987,-2.1017,-2.1016,-2.1015,-2.1014,-2.1121,-2.1125,-2.1129,0,0,0,0,0,0,0,0,0,0,0,0,0,-2.0789,-2.0704,-2.0878,-2.0908,-2.0912,-2.0984,-2.0985,-2.0987,-2.1017,-2.1016,-2.1015,-2.1014,-2.112,-2.1125,-2.113,-2.1179,0,0,-2.1145,-2.1148,0,0,0,0,0,0,0,0,-2.0784,-2.0795,-2.0902,-2.0906,-2.091,-2.0986,-2.0962,-2.1051,-2.1017,-2.0977,-2.1015,-2.1014,-2.1078,-2.1086,-2.1108,-2.1184,-2.1188,-2.1146,-2.1149,-2.1151,-2.1152,0,0,0,0,0,0,0,-2.0778,-2.0791,-2.092,-2.0904,-2.0909,-2.0916,-2.0928,-2.0979,-2.1031,-2.098,-2.0983,-2.0995,-2.108,-2.1103,-2.1111,-2.119,-2.1146,-2.115,-2.1153,-2.1155,-2.1311,-2.1312,0,0,0,0,0,0,-2.0767,-2.0786,-2.0917,-2.0923,-2.0844,-2.092,-2.0933,-2.0963,-2.103,-2.104,-2.0995,-2.0996,-2.1095,-2.1105,-2.1114,-2.1176,-2.1151,-2.1156,-2.1159,-2.131,-2.1311,-2.1313,0,0,0,0,0,0,-2.0763,-2.0778,-2.0912,-2.0855,-2.0873,-2.0924,-2.0957,-2.0965,-2.0989,-2.1042,-2.1051,-2.101,-2.1094,-2.1107,-2.1163,-2.118,-2.1158,-2.1163,-2.1309,-2.1311,-2.1312,-2.1299,0,0,0,0,0,0,-2.0757,-2.0776,-2.0796,-2.0855,-2.0876,-2.0959,-2.0958,-2.0968,-2.0997,-2.0999,-2.1058,-2.1067,-2.1095,-2.1155,-2.1168,-2.1187,-2.1167,-2.1308,-2.131,-2.1312,-2.1298,-2.13,-2.1302,0,0,0,0,0,-2.0751,-2.0788,-2.0797,-2.0812,-2.0901,-2.096,-2.0972,-2.1003,-2.0999,-2.1018,-2.1053,-2.1065,-2.1176,-2.116,-2.1175,-2.1196,-2.1307,-2.1309,-2.1311,-2.1297,-2.13,-2.1302,0,0,0,0,0,0,-2.0729,-2.0796,-2.0807,-2.0864,-2.0906,-2.0965,-2.0991,-2.1005,-2.1049,-2.1048,-2.1085,-2.1098,-2.1151,-2.1179,-2.116,-2.1247,-2.1242,-2.1247,-2.1226,-2.1229,-2.123,-2.1222,-2.1171,0,0,0,0,0,-2.073,-2.0773,-2.083,-2.0875,-2.0895,-2.0939,-2.0966,-2.0987,-2.1032,-2.1049,-2.1088,-2.113,-2.1175,-2.1204,-2.1248,-2.1303,-2.1316,-2.1324,-2.1326,-2.1327,-2.1331,-2.1362,-2.1366,-2.1321,-2.1321,-2.1321,0,0,-2.0734,-2.0777,-2.0801,-2.0871,-2.0906,-2.0949,-2.0954,-2.0999,-2.1031,-2.1056,-2.111,-2.114,-2.119,-2.1245,-2.1272,-2.1271,-2.1347,-2.133,-2.1331,-2.1334,-2.1365,-2.1369,-2.1373,-2.1322,-2.1322,-2.1322,0,0,-2.0763,-2.08,-2.0841,-2.0876,-2.0929,-2.0958,-2.0968,-2.1025,-2.1045,-2.1101,-2.1121,-2.1159,-2.1235,-2.127,-2.1298,-2.134,-2.1352,-2.1353,-2.1362,-2.1391,-2.1395,-2.1398,-2.1412,-2.1417,-2.1357,-2.1357,-2.1357,0,-2.0761,-2.0826,-2.086,-2.0904,-2.0934,-2.096,-2.1001,-2.1034,-2.1098,-2.1118,-2.1116,-2.1212,-2.1248,-2.1311,-2.1321,-2.1343,-2.1355,-2.1346,-2.1392,-2.1395,-2.1399,-2.1413,-2.1418,-2.1357,-2.1357,-2.1357,-2.1357,0,-2.0821,-2.0866,-2.0893,-2.0954,-2.0988,-2.103,-2.107,-2.11,-2.1118,-2.1147,-2.1202,-2.1246,-2.1299,-2.1316,-2.1334,-2.1382,-2.138,-2.1384,-2.138,-2.1402,-2.1416,-2.1422,-2.1356,-2.1356,-2.1357,-2.1357,0,0,-2.0837,-2.0918,-2.0927,-2.0955,-2.1016,-2.1051,-2.1094,-2.1147,-2.1171,-2.1215,-2.1251,-2.1316,-2.132,-2.1352,-2.1374,-2.14,-2.1429,-2.1401,-2.1403,-2.1404,-2.1484,-2.1479,-2.1485,-2.1438,-2.144,-2.1441,-2.1479,0,-2.0873,-2.0952,-2.0984,-2.1048,-2.1089,-2.1114,-2.1152,-2.1193,-2.1222,-2.1261,-2.1292,-2.1337,-2.134,-2.1359,-2.1386,-2.142,-2.1445,-2.1418,-2.1472,-2.1474,-2.1458,-2.1492,-2.1487,-2.1521,-2.1485,-2.1486,-2.1486,0,-2.0925,-2.0969,-2.1037,-2.1092,-2.111,-2.1144,-2.1194,-2.1232,-2.1278,-2.1297,-2.1332,-2.1353,-2.14,-2.1393,-2.1457,-2.1437,-2.1462,-2.1482,-2.1484,-2.1489,-2.1481,-2.1497,-2.1533,-2.1538,-2.1495,-2.1495,-2.1494,0,-2.0928,-2.1005,-2.1056,-2.1079,-2.1145,-2.1168,-2.1196,-2.1242,-2.1272,-2.1316,-2.1335,-2.1384,-2.141,-2.1447,-2.1481,-2.1473,-2.1541,-2.1537,-2.1557,-2.1556,-2.157,-2.1568,-2.1609,-2.1587,-2.1587,-2.1587,-2.1587,0,-2.0964,-2.1004,-2.1058,-2.1089,-2.1135,-2.1171,-2.1215,-2.1246,-2.1286,-2.1323,-2.1348,-2.1382,-2.1425,-2.1464,-2.1491,-2.1539,-2.1551,-2.1567,-2.1574,-2.1565,-2.1562,-2.158,-2.1578,-2.1588,-2.1588,-2.1588,-2.1587,0,-2.0976,-2.1014,-2.107,-2.1128,-2.1143,-2.1174,-2.1224,-2.1254,-2.1284,-2.1331,-2.1344,-2.1391,-2.1438,-2.1476,-2.1538,-2.1555,-2.1606,-2.1614,-2.159,-2.1593,-2.1611,-2.1608,-2.1664,-2.1672,-2.1645,-2.1645,-2.1646,0,-2.0995,-2.1027,-2.1088,-2.1115,-2.1143,-2.1186,-2.1216,-2.1253,-2.1283,-2.1339,-2.1363,-2.1412,-2.1454,-2.1528,-2.1568,-2.1615,-2.1624,-2.164,-2.1631,-2.162,-2.1623,-2.162,-2.1623,-2.164,-2.164,-2.1641,-2.1641,0,-2.1026,-2.1043,-2.1085,-2.1134,-2.1169,-2.121,-2.1251,-2.1271,-2.1316,-2.1348,-2.1397,-2.1429,-2.1493,-2.1542,-2.1593,-2.1622,-2.1639,-2.1643,-2.165,-2.1641,-2.1625,-2.1633,-2.1592,-2.1642,-2.1642,-2.1641,-2.1641,-2.1641,-2.1041,-2.107,-2.1118,-2.1164,-2.1199,-2.1237,-2.1268,-2.1302,-2.1344,-2.1398,-2.1418,-2.1468,-2.1514,-2.1585,-2.1615,-2.1655,-2.1655,-2.1666,-2.1668,-2.167,-2.1668,-2.162,-2.1664,-2.1664,-2.1664,-2.1664,-2.1664,0,-2.1072,-2.1104,-2.1146,-2.1203,-2.1239,-2.1252,-2.1298,-2.1327,-2.1371,-2.1413,-2.1454,-2.151,-2.1557,-2.16,-2.165,-2.1673,-2.1682,-2.1685,-2.1683,-2.1689,-2.1665,-2.1654,-2.1677,-2.1677,-2.1677,-2.1677,-2.1677,-2.1677,-2.1092,-2.1142,-2.1164,-2.1231,-2.1263,-2.1313,-2.1338,-2.1372,-2.1406,-2.1468,-2.1507,-2.1535,-2.1578,-2.163,-2.1674,-2.1686,-2.1702,-2.1703,-2.1716,-2.1693,-2.1691,-2.1689,-2.1679,-2.1706,-2.1706,-2.1736,-2.1737,-2.1737]}]]